EW4931 Weather Reports


time (UTC)temp
F
wind
direction
speed
knots
gust
knots
rain 1hr
in
rain 24hr
in
rain mn
in
humidity
%
barometer
mb
20240420153839 36 37 3.5 13.0 0.00 0.00 0.00 53 1016.5
20240420153336 36 18 7.8 13.0 0.00 0.00 0.00 52 1016.4
20240420153059 37 344 8.7 12.2 0.00 0.00 0.00 52 1016.4
20240420152337 37 347 7.8 10.4 0.00 0.00 0.00 52 1016.4
20240420151835 37 6 3.5 10.4 0.00 0.00 0.00 54 1016.3
20240420151335 36 34 5.2 14.8 0.00 0.00 0.00 53 1016.3
20240420150835 37 0 7.0 14.8 0.00 0.00 0.00 54 1016.1
20240420150335 37 54 7.8 13.0 0.00 0.00 0.00 53 1016.1
20240420150100 38 6 7.0 11.3 0.00 0.00 0.00 53 1016.0
20240420145553 38 39 7.0 13.0 0.00 0.00 0.00 53 1015.8
20240420144835 37 0 3.5 13.0 0.00 0.00 0.00 53 1015.8
20240420144335 38 343 5.2 11.3 0.00 0.00 0.00 52 1015.9
20240420143834 37 32 2.6 13.9 0.00 0.00 0.00 52 1015.8
20240420143555 38 0 7.8 13.9 0.00 0.00 0.00 52 1015.8
20240420142835 37 0 5.2 13.0 0.00 0.00 0.00 53 1015.7
20240420142334 37 31 9.6 13.0 0.00 0.00 0.00 54 1015.6
20240420141834 38 45 6.1 13.0 0.00 0.00 0.00 56 1015.6
20240420141335 37 79 10.4 13.0 0.00 0.00 0.00 55 1015.6
20240420141054 38 355 7.0 13.0 0.00 0.00 0.00 56 1015.6
20240420140334 37 37 5.2 13.0 0.00 0.00 0.00 56 1015.4
20240420140104 37 28 7.0 14.8 0.00 0.00 0.00 56 1015.4
20240420135556 37 25 7.8 14.8 0.00 0.00 0.00 57 1015.3
20240420134836 37 56 7.0 14.8 0.00 0.00 0.00 57 1015.1
20240420134558 37 357 7.8 14.8 0.00 0.00 0.00 57 1015.1
20240420133834 36 344 4.3 11.3 0.00 0.00 0.00 57 1015.0
20240420133333 37 323 5.2 10.4 0.00 0.00 0.00 58 1015.0
20240420132834 36 0 6.1 12.2 0.00 0.00 0.00 58 1015.0
20240420132331 36 25 6.1 13.9 0.00 0.00 0.00 59 1015.0
20240420131832 36 348 9.6 13.9 0.00 0.00 0.00 59 1014.9
20240420131332 37 39 4.3 9.6 0.00 0.00 0.00 60 1014.8
20240420130831 37 303 1.7 9.6 0.00 0.00 0.00 61 1014.8
20240420130331 36 35 2.6 11.3 0.00 0.00 0.00 63 1014.7
20240420125832 36 4 5.2 11.3 0.00 0.00 0.00 62 1014.6
20240420125815 35 357 4.3 13.0 0.00 0.00 0.00 64 1014.5
20240420124832 35 17 9.6 13.0 0.00 0.00 0.00 62 1014.5
20240420124333 35 0 4.3 9.6 0.00 0.00 0.00 63 1014.4
20240420123831 35 30 5.2 13.9 0.00 0.00 0.00 63 1014.4
20240420123332 35 58 8.7 13.9 0.00 0.00 0.00 62 1014.4
20240420123053 35 16 5.2 13.0 0.00 0.00 0.00 63 1014.4
20240420122331 35 34 8.7 13.0 0.00 0.00 0.00 64 1014.2
20240420122103 35 351 4.3 12.2 0.00 0.00 0.00 65 1014.2
20240420121332 34 8 6.1 13.9 0.00 0.00 0.00 65 1014.1
20240420120831 34 0 7.8 13.9 0.00 0.00 0.00 67 1014.1
20240420120331 34 1 7.8 13.9 0.00 0.00 0.00 65 1013.9
20240420115831 35 59 2.6 13.0 0.00 0.00 0.00 66 1013.8
20240420115331 35 31 7.0 14.8 0.00 0.00 0.00 65 1013.8
20240420114832 34 18 7.8 14.8 0.00 0.00 0.00 65 1013.7
20240420114332 35 42 6.1 14.8 0.00 0.00 0.00 64 1013.6
20240420114057 35 80 5.2 12.2 0.00 0.00 0.00 64 1013.5
20240420113330 35 32 7.0 13.0 0.00 0.00 0.00 65 1013.5
20240420112831 35 0 6.1 13.0 0.00 0.00 0.00 66 1013.5
20240420112330 35 4 7.0 13.0 0.00 0.00 0.00 65 1013.3
20240420111831 34 21 5.2 12.2 0.00 0.00 0.00 65 1013.2
20240420111331 34 4 6.1 12.2 0.00 0.00 0.00 65 1013.2
20240420111057 34 0 6.1 11.3 0.00 0.00 0.00 66 1013.1
20240420110330 34 25 4.3 10.4 0.00 0.00 0.00 66 1013.0
20240420105830 34 51 7.0 12.2 0.00 0.00 0.00 66 1012.9
20240420105329 34 25 7.0 13.0 0.00 0.00 0.00 66 1012.9
20240420105323 34 326 7.8 14.8 0.00 0.00 0.00 66 1012.9
20240420104330 34 44 9.6 15.6 0.00 0.00 0.00 65 1012.8
20240420103831 34 11 7.8 15.6 0.00 0.00 0.00 65 1012.7
20240420103330 34 6 5.2 15.6 0.00 0.00 0.00 65 1012.6
20240420102829 34 17 9.6 15.6 0.00 0.00 0.00 65 1012.5
20240420102330 34 31 7.8 13.0 0.00 0.00 0.00 65 1012.4
20240420101829 34 0 6.1 13.0 0.00 0.00 0.00 65 1012.4
20240420101328 35 54 5.2 13.0 0.00 0.00 0.00 66 1012.4
20240420100829 35 337 7.8 13.0 0.00 0.00 0.00 65 1012.2
20240420100554 35 63 5.2 13.9 0.00 0.00 0.00 66 1012.2
20240420095828 34 27 7.0 13.9 0.00 0.00 0.00 65 1012.1
20240420095328 34 341 3.5 13.0 0.00 0.00 0.00 66 1012.0
20240420094828 34 0 4.3 13.0 0.00 0.00 0.00 65 1011.9
20240420094329 34 16 6.1 12.2 0.00 0.00 0.00 64 1011.8
20240420093827 34 0 6.1 12.2 0.00 0.00 0.00 64 1011.8
20240420093328 34 16 4.3 13.0 0.00 0.00 0.00 65 1011.8
20240420092828 34 0 10.4 13.0 0.00 0.00 0.00 66 1011.6
20240420092328 34 25 8.7 13.0 0.00 0.00 0.00 67 1011.6
20240420091828 34 323 3.5 11.3 0.00 0.00 0.00 69 1011.5
20240420091327 34 319 5.2 13.0 0.00 0.00 0.00 70 1011.4
20240420090827 34 10 5.2 16.5 0.00 0.00 0.00 70 1011.3
20240420090327 34 7 7.0 16.5 0.00 0.00 0.00 70 1011.3
20240420085827 34 0 4.3 11.3 0.00 0.00 0.00 71 1011.2
20240420085328 34 316 2.6 8.7 0.00 0.00 0.00 72 1011.2
20240420084826 34 293 3.5 11.3 0.00 0.00 0.00 72 1011.2
20240420084327 34 323 6.1 11.3 0.00 0.00 0.00 73 1011.1
20240420083827 33 329 3.5 9.6 0.00 0.00 0.00 74 1011.0
20240420083328 33 350 4.3 10.4 0.00 0.00 0.00 74 1011.0
20240420082827 33 38 3.5 11.3 0.00 0.00 0.00 75 1010.9
20240420082327 33 354 5.2 11.3 0.00 0.00 0.00 75 1010.7
20240420081826 33 298 5.2 13.9 0.00 0.00 0.00 78 1010.7
20240420081326 32 320 6.1 13.9 0.00 0.00 0.00 77 1010.7
20240420080826 32 0 4.3 9.6 0.00 0.00 0.00 79 1010.7
20240420080327 32 0 4.3 8.7 0.00 0.00 0.00 79 1010.5
20240420075826 32 1 4.3 12.2 0.00 0.00 0.00 80 1010.6
20240420075517 32 309 5.2 12.2 0.00 0.00 0.00 79 1010.5
20240420074325 32 286 3.5 10.4 0.00 0.00 0.00 79 1010.3
20240420073825 32 336 6.1 10.4 0.00 0.00 0.00 78 1010.2
20240420073326 32 10 4.3 13.9 0.00 0.00 0.00 79 1010.1
20240420072826 32 16 9.6 13.9 0.00 0.00 0.00 79 1010.1
20240420072325 32 348 5.2 13.9 0.00 0.00 0.00 80 1010.1
20240420071825 32 0 8.7 13.9 0.00 0.00 0.00 80 1010.0
20240420071325 32 298 4.3 11.3 0.00 0.00 0.00 79 1010.0
20240420070826 32 353 7.0 11.3 0.00 0.00 0.00 79 1009.9
20240420070325 31 28 6.1 14.8 0.00 0.00 0.00 79 1009.8
20240420065824 31 4 7.0 14.8 0.00 0.00 0.00 79 1009.8
20240420065326 31 3 7.0 9.6 0.00 0.00 0.00 80 1009.8
20240420064824 31 3 3.5 11.3 0.00 0.00 0.00 80 1009.7
20240420064324 31 313 7.0 13.0 0.00 0.00 0.00 79 1009.7
20240420063823 31 357 7.0 13.0 0.00 0.00 0.00 80 1009.6
20240420063324 31 6 4.3 13.0 0.00 0.00 0.00 81 1009.6
20240420062824 31 351 5.2 13.0 0.00 0.00 0.00 80 1009.5
20240420062323 31 24 5.2 10.4 0.00 0.00 0.00 80 1009.5
20240420061823 31 0 5.2 9.6 0.00 0.00 0.00 81 1009.4
20240420061324 31 0 5.2 10.4 0.00 0.00 0.00 81 1009.3
20240420061048 31 326 4.3 10.4 0.00 0.00 0.00 80 1009.4
20240420060323 31 313 4.3 11.3 0.00 0.00 0.00 80 1009.4
20240420055824 31 42 5.2 11.3 0.00 0.00 0.00 80 1009.3
20240420055545 31 25 6.1 10.4 0.00 0.00 0.00 80 1009.3
20240420054823 31 298 5.2 9.6 0.00 0.00 0.00 80 1009.3
20240420054323 31 3 4.3 13.9 0.00 0.00 0.00 81 1009.2
20240420053824 30 310 4.3 13.9 0.00 0.00 0.00 81 1009.1
20240420053322 30 298 4.3 11.3 0.00 0.00 0.00 82 1009.1
20240420052822 30 309 3.5 12.2 0.00 0.00 0.00 82 1009.0
20240420052322 30 326 6.1 12.2 0.00 0.00 0.00 82 1009.1
20240420051822 30 0 5.2 10.4 0.00 0.00 0.00 82 1009.1
20240420051322 30 0 3.5 10.4 0.00 0.00 0.00 82 1009.0
20240420050822 30 32 4.3 10.4 0.00 0.00 0.00 82 1008.9
20240420050321 30 298 5.2 11.3 0.00 0.00 0.00 82 1008.9
20240420045822 30 10 3.5 12.2 0.00 0.00 0.00 82 1008.8
20240420045322 30 341 5.2 12.2 0.00 0.00 0.00 82 1008.9
20240420045310 30 345 5.2 10.4 0.00 0.00 0.00 82 1008.8
20240420044322 30 317 5.2 11.3 0.00 0.00 0.00 81 1008.8
20240420044039 30 320 4.3 11.3 0.00 0.00 0.00 82 1008.7
20240420043321 30 302 4.3 10.4 0.00 0.00 0.00 81 1008.7
20240420042821 30 0 5.2 13.0 0.00 0.00 0.00 81 1008.6
20240420042803 30 314 4.3 13.9 0.00 0.00 0.00 80 1008.6
20240420041823 30 338 7.0 13.9 0.00 0.00 0.00 80 1008.5
20240420041321 30 289 4.3 13.9 0.00 0.00 0.00 80 1008.5
20240420040820 30 8 5.2 13.0 0.00 0.00 0.00 80 1008.5
20240420040546 31 16 5.2 13.0 0.00 0.00 0.00 80 1008.3
20240420035822 30 3 4.3 10.4 0.00 0.00 0.00 80 1008.4
20240420035320 31 0 5.2 10.4 0.00 0.00 0.00 79 1008.3
20240420034821 31 333 4.3 11.3 0.00 0.00 0.00 79 1008.3
20240420034320 31 306 5.2 12.2 0.00 0.00 0.00 79 1008.3
20240420033820 30 336 6.1 12.2 0.00 0.00 0.00 79 1008.3
20240420033320 31 348 4.3 9.6 0.00 0.00 0.00 79 1008.2
20240420032821 30 0 4.3 7.8 0.00 0.00 0.00 79 1008.2
20240420032540 30 0 4.3 7.8 0.00 0.00 0.00 80 1008.2
20240420031819 30 312 3.5 5.2 0.00 0.00 0.00 79 1008.2
20240420031320 30 299 3.5 10.4 0.00 0.00 0.00 79 1008.2
20240420030821 30 336 6.1 11.3 0.00 0.00 0.00 79 1008.2
20240420030539 30 16 4.3 11.3 0.00 0.00 0.00 80 1008.1
20240420025819 30 329 3.5 9.6 0.00 0.00 0.00 80 1008.2
20240420025319 30 0 5.2 9.6 0.00 0.00 0.00 80 1008.2
20240420024817 30 0 3.5 11.3 0.00 0.00 0.00 79 1008.1
20240420024317 30 345 5.2 11.3 0.00 0.00 0.00 79 1008.1
20240420024043 30 6 5.2 9.6 0.00 0.00 0.00 78 1008.1
20240420023317 30 351 5.2 10.4 0.00 0.00 0.00 78 1008.0
20240420022818 30 312 4.3 10.4 0.00 0.00 0.00 78 1008.0
20240420022317 30 0 2.6 9.6 0.00 0.00 0.00 77 1008.0
20240420021817 30 38 5.2 9.6 0.00 0.00 0.00 77 1007.9
20240420021539 30 343 4.3 8.7 0.00 0.00 0.00 76 1008.0
20240420020819 30 326 3.5 9.6 0.00 0.00 0.00 76 1008.0
20240420020539 30 0 4.3 9.6 0.00 0.00 0.00 76 1008.0
20240420020304 30 324 3.5 9.6 0.00 0.00 0.00 76 1008.1
20240420015318 30 306 6.1 9.6 0.00 0.00 0.00 76 1008.0
20240420014819 30 313 4.3 10.4 0.00 0.00 0.00 76 1008.0
20240420014318 30 11 6.1 10.4 0.00 0.00 0.00 76 1008.0
20240420013819 30 331 4.3 9.6 0.00 0.00 0.00 76 1008.0
20240420013318 30 327 7.0 9.6 0.00 0.00 0.00 77 1007.9
20240420012820 30 351 6.1 8.7 0.00 0.00 0.00 77 1007.9
20240420012319 30 296 5.2 8.7 0.00 0.00 0.00 77 1008.0
20240420011818 30 307 4.3 9.6 0.00 0.00 0.00 77 1008.0
20240420011318 30 351 5.2 9.6 0.00 0.00 0.00 77 1007.9
20240420011303 30 336 4.3 9.6 0.00 0.00 0.00 76 1007.9
20240420010317 30 316 3.5 9.6 0.00 0.00 0.00 77 1007.9
20240420005818 30 336 5.2 9.6 0.00 0.00 0.00 77 1007.9
20240420005318 30 0 3.5 11.3 0.00 0.00 0.00 76 1007.9
20240420005040 30 319 3.5 11.3 0.00 0.00 0.00 76 1008.0
20240420004318 30 358 6.1 12.2 0.00 0.00 0.00 76 1008.0
20240420004037 30 329 6.1 12.2 0.00 0.00 0.00 76 1007.9
20240420003318 29 326 3.5 7.8 0.00 0.00 0.00 77 1007.9
20240420002817 29 327 5.2 10.4 0.00 0.00 0.00 77 1007.8
20240420002317 29 314 5.2 10.4 0.00 0.00 0.00 76 1007.9
20240420001817 29 299 5.2 10.4 0.00 0.00 0.00 76 1007.9
20240420001317 29 347 4.3 10.4 0.00 0.00 0.00 76 1007.9
20240420000816 29 0 3.5 8.7 0.00 0.00 0.00 76 1007.9
20240420000316 29 347 2.6 7.8 0.00 0.00 0.00 76 1007.8
20240419235817 30 344 1.7 7.8 0.00 0.00 0.00 76 1007.9
20240419235316 30 0 3.5 6.1 0.00 0.00 0.00 75 1007.8
20240419234817 30 1 4.3 8.7 0.00 0.00 0.00 75 1007.8
20240419234317 30 353 5.2 8.7 0.00 0.00 0.00 75 1007.8
20240419233816 30 320 3.5 8.7 0.00 0.00 0.00 74 1007.8
20240419233510 30 357 3.5 7.8 0.00 0.00 0.00 74 1007.7
20240419232316 30 333 1.7 9.6 0.00 0.00 0.00 73 1007.7
20240419231816 30 327 7.0 9.6 0.00 0.00 0.00 73 1007.7
20240419231315 30 331 6.1 8.7 0.00 0.00 0.00 73 1007.8
20240419231034 31 24 5.2 9.6 0.00 0.00 0.00 73 1007.7
20240419230317 31 41 7.0 9.6 0.00 0.00 0.00 73 1007.7
20240419225815 31 336 5.2 9.6 0.00 0.00 0.00 72 1007.8
20240419225314 31 25 5.2 9.6 0.00 0.00 0.00 72 1007.7
20240419224815 31 354 3.5 9.6 0.00 0.00 0.00 71 1007.8
20240419224314 32 329 1.7 10.4 0.00 0.00 0.00 71 1007.7
20240419223814 32 25 7.0 10.4 0.00 0.00 0.00 71 1007.8
20240419223314 32 27 6.1 10.4 0.00 0.00 0.00 71 1007.8
20240419223035 32 8 5.2 10.4 0.00 0.00 0.00 71 1007.8
20240419222313 32 310 3.5 10.4 0.00 0.00 0.00 71 1007.8
20240419221813 32 21 1.7 8.7 0.00 0.00 0.00 70 1007.7
20240419221312 32 51 5.2 7.8 0.00 0.00 0.00 70 1007.8
20240419220812 32 6 5.2 9.6 0.00 0.00 0.00 71 1007.8
20240419220312 32 17 5.2 10.4 0.00 0.00 0.00 71 1007.9
20240419220034 32 0 6.1 10.4 0.00 0.00 0.00 71 1007.8
20240419215314 32 0 3.5 10.4 0.00 0.00 0.00 71 1007.8
20240419214813 32 24 6.1 10.4 0.00 0.00 0.00 71 1007.9
20240419214313 32 8 2.6 12.2 0.00 0.00 0.00 72 1007.8
20240419213813 32 27 5.2 12.2 0.00 0.00 0.00 72 1007.8
20240419213313 32 25 2.6 12.2 0.00 0.00 0.00 71 1007.8
20240419212813 33 45 6.1 12.2 0.00 0.00 0.00 71 1007.8
20240419212313 33 4 4.3 11.3 0.00 0.00 0.00 71 1007.8
20240419211812 33 31 5.2 11.3 0.00 0.00 0.00 71 1007.9
20240419211533 33 38 5.2 8.7 0.00 0.00 0.00 71 1007.9
20240419210812 33 18 3.5 9.6 0.00 0.00 0.00 72 1007.8
20240419210313 33 348 5.2 9.6 0.00 0.00 0.00 71 1007.9
20240419205813 33 336 2.6 10.4 0.00 0.00 0.00 71 1007.8
20240419205312 33 357 3.5 10.4 0.00 0.00 0.00 71 1007.8
20240419204811 33 353 1.7 7.8 0.00 0.00 0.00 71 1007.8
20240419204310 33 351 1.7 6.1 0.00 0.00 0.00 71 1007.9
20240419203811 33 302 3.5 7.8 0.00 0.00 0.00 70 1007.9
20240419203311 33 0 3.5 9.6 0.00 0.00 0.00 70 1007.9
20240419202811 34 340 5.2 9.6 0.00 0.00 0.00 70 1007.9
20240419202311 34 347 5.2 11.3 0.00 0.00 0.00 69 1007.9
20240419202036 34 39 4.3 11.3 0.00 0.00 0.00 69 1008.0
20240419201310 34 338 1.7 10.4 0.00 0.00 0.00 69 1007.9
20240419200810 34 317 2.6 9.6 0.00 0.00 0.00 68 1007.9
20240419200309 34 14 3.5 9.6 0.00 0.00 0.00 68 1007.9
20240419195810 34 338 5.2 10.4 0.00 0.00 0.00 68 1007.8
20240419195309 34 343 6.1 10.4 0.00 0.00 0.00 68 1007.9
20240419194809 34 24 5.2 8.7 0.00 0.00 0.00 68 1007.9
20240419194537 34 0 1.7 8.7 0.00 0.00 0.00 67 1007.9
20240419194030 34 6 4.3 9.6 0.00 0.00 0.00 67 1007.9
20240419193309 34 355 2.6 9.6 0.00 0.00 0.00 67 1007.9
20240419192812 34 312 5.2 8.7 0.00 0.00 0.00 67 1008.0
20240419192309 34 8 4.3 8.7 0.00 0.00 0.00 67 1008.1
20240419191809 34 49 5.2 8.7 0.00 0.00 0.00 68 1008.1
20240419191309 34 14 3.5 5.2 0.00 0.00 0.00 68 1008.0
20240419191026 34 338 2.6 7.8 0.00 0.00 0.00 69 1008.1
20240419190309 34 0 2.6 7.8 0.00 0.00 0.00 69 1008.2
20240419185808 34 32 1.7 4.3 0.00 0.00 0.00 69 1008.2
20240419185307 34 6 2.6 5.2 0.00 0.00 0.00 69 1008.1
20240419184808 34 6 3.5 5.2 0.00 0.00 0.00 69 1008.2
20240419184307 34 324 2.6 4.3 0.00 0.00 0.00 69 1008.1
20240419184035 34 30 1.7 4.3 0.00 0.00 0.00 68 1008.1
20240419183309 34 0 1.7 4.3 0.00 0.00 0.00 68 1008.1
20240419182809 34 16 1.7 4.3 0.00 0.00 0.00 68 1008.1
20240419182309 34 0 0.9 7.8 0.00 0.00 0.00 68 1008.0
20240419182030 34 4 5.2 7.8 0.00 0.00 0.00 67 1008.1
20240419181308 34 45 1.7 8.7 0.00 0.00 0.00 67 1008.0
20240419181035 34 58 2.6 8.7 0.00 0.00 0.00 67 1008.0
20240419180308 35 51 2.6 11.3 0.00 0.00 0.00 67 1008.0
20240419175809 35 1 3.5 11.3 0.00 0.00 0.00 67 1008.0
20240419175309 35 31 4.3 8.7 0.00 0.00 0.00 67 1008.0
20240419174808 35 0 3.5 9.6 0.00 0.00 0.00 67 1008.0
20240419174530 35 353 4.3 9.6 0.00 0.00 0.00 66 1008.0
20240419173809 35 41 5.2 8.7 0.00 0.00 0.00 66 1007.9
20240419173308 35 34 4.3 8.7 0.00 0.00 0.00 65 1007.9
20240419172807 35 23 3.5 8.7 0.00 0.00 0.00 66 1008.0
20240419172746 35 41 2.6 7.8 0.00 0.00 0.00 66 1008.0
20240419171806 35 6 4.3 8.7 0.00 0.00 0.00 65 1008.0
20240419171305 35 0 5.2 8.7 0.00 0.00 0.00 65 1007.9
20240419170806 35 8 2.6 7.8 0.00 0.00 0.00 65 1007.9
20240419170305 35 44 4.3 7.8 0.00 0.00 0.00 65 1007.9
20240419165808 35 28 2.6 10.4 0.00 0.00 0.00 65 1008.0
20240419165307 35 350 5.2 10.4 0.00 0.00 0.00 65 1008.0
20240419164808 35 25 6.1 12.2 0.00 0.00 0.00 65 1008.0
20240419164523 35 44 5.2 12.2 0.00 0.00 0.00 66 1008.0
20240419163806 35 39 4.3 8.7 0.00 0.00 0.00 66 1008.0
20240419163307 35 35 4.3 8.7 0.00 0.00 0.00 66 1008.0
20240419162806 35 32 4.3 7.8 0.00 0.00 0.00 66 1008.0
20240419162531 35 24 5.2 11.3 0.00 0.00 0.00 66 1008.0
20240419162026 35 47 8.7 11.3 0.00 0.00 0.00 66 1008.0
20240419161305 35 14 4.3 6.1 0.00 0.00 0.00 66 1008.0
20240419160805 35 32 4.3 8.7 0.00 0.00 0.00 66 1008.1
20240419160522 35 49 5.2 8.7 0.00 0.00 0.00 66 1008.0
20240419160244 35 31 4.3 12.2 0.00 0.00 0.00 67 1008.1
20240419155305 35 51 5.2 12.2 0.00 0.00 0.00 67 1008.1
20240419154805 35 110 5.2 7.8 0.00 0.00 0.00 68 1008.1
20240419154305 35 58 3.5 10.4 0.00 0.00 0.00 69 1008.1